Zanzibar, Tanzania

10:17 PM EAT on September 19, 2017 (GMT +0300)
Zanzibar

Weather History for HTZA - March, 2014

Change the Weather History Date:

Sunday, March 16, 2014

  Actual Average Record
Temperature  
Mean Temperature 82 °F -  
Max Temperature 91 °F 82 °F 95 °F (2016)
Min Temperature 73 °F 76 °F 73 °F (1998)
Cooling Degree Days 17    
Growing Degree Days 32 (Base 50)    
Moisture  
Dew Point 74 °F    
Average Humidity 81    
Maximum Humidity 100    
Minimum Humidity 49    
Precipitation  
Precipitation 0.00 in 0.37 in - ()
Sea Level Pressure  
Sea Level Pressure 29.89 in    
Wind  
Wind Speed 3 mph ()    
Max Wind Speed 9 mph    
Max Gust Speed -    
Visibility 9.7 miles    
Events      
Averages and records for this station are not official NWS values.
T = Trace of Precipitation, MM = Missing Value Source: Averaged Metar Reports

Daily Weather History Graph

Daily Weather History Graph

Search for Another Location

Airport or City:

Trip Planner

Search our weather history database for the weather conditions in past years. The results will help you decide how hot, cold, wet, or windy it might be!

Date:

Astronomy

Mar. 16, 2014 Rise Set
Actual Time 6:27 AM EAT 6:35 PM EAT
Civil Twilight 6:06 AM EAT 6:56 PM EAT
Nautical Twilight 5:42 AM EAT 7:20 PM EAT
Astronomical Twilight 5:18 AM EAT 7:44 PM EAT
Moon 6:24 PM EAT (3/16) 6:00 AM EAT (3/16)
Length of Visible Light 12h 49m
Length of Day
12h 08m
Full, 100% of the Moon is Illuminated
Mar 16
Full
Mar 16
Full
Mar 24
Last Quarter
Mar 30
New
Apr 7
First Quarter

Hourly Weather History & Observations

Time (EAT) Temp. Heat Index Dew Point Humidity Pressure Visibility Wind Dir Wind Speed Gust Speed Precip Events Conditions
12:00 AM 76 °F - 73 °F 88% 29.94 in 19 mi SW 5.8 mph - -   Scattered Clouds
12:00 AM 75.2 °F - 73.4 °F 94% 29.92 in 6.2 mi SW 5.8 mph - N/A   Scattered Clouds
1:00 AM 75.2 °F - 73.4 °F 94% 29.89 in 6.2 mi Calm Calm - N/A   Scattered Clouds
2:00 AM 75.2 °F - 73.4 °F 94% 29.89 in 6.2 mi Calm Calm - N/A   Partly Cloudy
3:00 AM 74 °F - 73 °F 95% 29.90 in 19 mi Calm Calm - -   Scattered Clouds
3:00 AM 73.4 °F - 73.4 °F 100% 29.89 in 6.2 mi Calm Calm - N/A   Partly Cloudy
4:00 AM 73.4 °F - 73.4 °F 100% 29.89 in 6.2 mi Calm Calm - N/A   Partly Cloudy
5:00 AM 73.4 °F - 73.4 °F 100% 29.89 in 6.2 mi Calm Calm - N/A   Partly Cloudy
6:00 AM 76 °F - 74 °F 94% 29.90 in 16 mi Calm Calm - -   Partly Cloudy
6:00 AM 75.2 °F - 75.2 °F 100% 29.89 in 6.2 mi Calm Calm - N/A   Partly Cloudy
7:00 AM 75.2 °F - 73.4 °F 94% 29.89 in 6.2 mi WSW 3.5 mph - N/A   Scattered Clouds
8:00 AM 78.8 °F - 75.2 °F 89% 29.95 in 6.2 mi SW 4.6 mph - N/A   Partly Cloudy
9:00 AM 81 °F - 76 °F 82% 29.95 in 19 mi WSW 9.2 mph - -   Scattered Clouds
9:00 AM 80.6 °F 87.1 °F 77.0 °F 89% 29.95 in 6.2 mi WSW 9.2 mph - N/A   Partly Cloudy
10:00 AM 82.4 °F 90.9 °F 77.0 °F 84% 29.95 in 6.2 mi WSW 9.2 mph - N/A   Partly Cloudy
11:00 AM 82.4 °F 90.9 °F 77.0 °F 84% 29.92 in 6.2 mi West 5.8 mph - N/A   Partly Cloudy
12:00 PM 85 °F - 77 °F 70% 29.91 in 19 mi South 9.2 mph - -   Scattered Clouds
1:00 PM 86.0 °F 93.4 °F 73.4 °F 66% 29.89 in 6.2 mi South 9.2 mph - N/A   Partly Cloudy
3:00 PM 90 °F - 73 °F 49% 29.85 in 19 mi Calm Calm - -   Scattered Clouds
3:00 PM 89.6 °F 98.2 °F 73.4 °F 59% 29.83 in 6.2 mi Calm Calm - N/A   Partly Cloudy
4:00 PM 91.4 °F 96.8 °F 69.8 °F 49% 29.83 in 6.2 mi Calm Calm - N/A   Partly Cloudy
6:00 PM 87 °F - 74 °F 56% 29.82 in 19 mi ENE 6.9 mph - -   Scattered Clouds
6:00 PM 87.8 °F 95.6 °F 73.4 °F 62% 29.80 in 6.2 mi ENE 6.9 mph - N/A   Partly Cloudy
7:00 PM 84.2 °F 90.9 °F 73.4 °F 70% 29.83 in 6.2 mi East 4.6 mph - N/A   Partly Cloudy
8:00 PM 82.4 °F 88.2 °F 73.4 °F 74% 29.86 in 6.2 mi East 4.6 mph - N/A   Partly Cloudy